Tallahassee, FL

9:59 PM EDT on April 30, 2017 (GMT -0400)
Tallahassee Regional

Weather History for KTLH - February, 2014

Change the Weather History Date:

Monday, February 24, 2014

  Actual Average Record
Temperature  
Mean Temperature 67 °F 57 °F  
Max Temperature 76 °F 70 °F 83 °F (2012)
Min Temperature 57 °F 44 °F 24 °F (1964)
Degree Days  
Heating Degree Days 0    
Month to date heating degree days 179  
Since 1 July heating degree days 1095  
Cooling Degree Days 2    
Month to date cooling degree days 10  
Year to date cooling degree days 12  
Growing Degree Days 16 (Base 50)    
Moisture  
Dew Point 58 °F    
Average Humidity 68    
Maximum Humidity 100    
Minimum Humidity 36    
Precipitation  
Precipitation 0.00 in 0.19 in 2.00 in (1942)
Month to date precipitation 3.76 4.09  
Year to date precipitation 7.43 8.43  
Sea Level Pressure  
Sea Level Pressure 30.04 in    
Wind  
Wind Speed 4 mph (North)    
Max Wind Speed 25 mph    
Max Gust Speed -    
Visibility 8 miles    
Events      
T = Trace of Precipitation, MM = Missing Value Source: NWS Daily Summary

Daily Weather History Graph

Daily Weather History Graph

Search for Another Location

Airport or City:

Trip Planner

Search our weather history database for the weather conditions in past years. The results will help you decide how hot, cold, wet, or windy it might be!

Date:

Astronomy

Feb. 24, 2014 Rise Set
Actual Time 7:08 AM EST 6:32 PM EST
Civil Twilight 6:44 AM EST 6:56 PM EST
Nautical Twilight 6:16 AM EST 7:24 PM EST
Astronomical Twilight 5:48 AM EST 7:52 PM EST
Moon 2:54 AM EST (2/24) 1:45 PM EST (2/24)
Length of Visible Light 12h 12m
Length of Day
11h 23m
Waning Crescent, 28% of the Moon is Illuminated
Feb 24
Waning Crescent
Mar 1
New
Mar 8
First Quarter
Mar 16
Full
Mar 23
Last Quarter

Hourly Weather History & Observations

Time (EST) Temp. Dew Point Humidity Pressure Visibility Wind Dir Wind Speed Gust Speed Precip Events Conditions
12:53 AM 64.0 °F 62.1 °F 93% 30.02 in 10.0 mi West 3.5 mph - N/A   Overcast
1:38 AM 62.6 °F 62.6 °F 100% 30.02 in 8.0 mi NNW 3.5 mph - N/A   Overcast
1:53 AM 63.0 °F 62.1 °F 97% 30.02 in 3.0 mi NNW 3.5 mph - N/A   Overcast
1:58 AM 62.6 °F 62.6 °F 100% 30.02 in 1.8 mi NNW 3.5 mph - N/A   Overcast
2:35 AM 62.6 °F 60.8 °F 94% 30.00 in 0.8 mi Calm Calm - N/A   Overcast
2:53 AM 63.0 °F 62.1 °F 97% 29.99 in 0.8 mi Calm Calm - N/A   Mist
3:06 AM 62.6 °F 62.6 °F 100% 29.99 in 1.0 mi Calm Calm - N/A   Mist
3:51 AM 62.6 °F 60.8 °F 94% 29.99 in 2.5 mi North 3.5 mph - N/A   Overcast
3:53 AM 63.0 °F 61.0 °F 93% 29.99 in 3.0 mi North 3.5 mph - N/A   Overcast
4:22 AM 62.6 °F 60.8 °F 94% 29.99 in 10.0 mi Calm Calm - N/A   Overcast
4:53 AM 63.0 °F 61.0 °F 93% 29.99 in 10.0 mi NNW 3.5 mph - N/A   Overcast
5:19 AM 62.6 °F 60.8 °F 94% 30.00 in 5.0 mi Calm Calm - N/A   Overcast
5:53 AM 63.0 °F 60.1 °F 90% 30.01 in 1.5 mi North 3.5 mph - N/A   Overcast
6:50 AM 62.6 °F 60.8 °F 94% 30.02 in 8.0 mi Calm Calm - N/A   Overcast
6:53 AM 63.0 °F 60.1 °F 90% 30.02 in 8.0 mi NNE 3.5 mph - N/A   Overcast
7:04 AM 62.6 °F 60.8 °F 94% 30.02 in 2.0 mi North 3.5 mph - N/A   Overcast
7:37 AM 64.4 °F 60.8 °F 88% 30.04 in 10.0 mi Calm Calm - N/A   Overcast
7:53 AM 64.0 °F 60.1 °F 87% 30.04 in 10.0 mi Calm Calm - N/A   Overcast
8:53 AM 64.0 °F 61.0 °F 90% 30.06 in 4.0 mi North 3.5 mph - N/A   Overcast
9:53 AM 66.0 °F 61.0 °F 84% 30.09 in 10.0 mi NNW 9.2 mph - N/A   Overcast
10:39 AM 64.4 °F 59.0 °F 83% 30.10 in 10.0 mi NNW 12.7 mph - N/A   Overcast
10:53 AM 64.9 °F 59.0 °F 81% 30.10 in 10.0 mi North 9.2 mph - N/A   Overcast
11:38 AM 66.2 °F 57.2 °F 73% 30.10 in 10.0 mi NNW 5.8 mph - N/A   Overcast
11:53 AM 69.1 °F 57.0 °F 65% 30.09 in 10.0 mi North 11.5 mph - N/A   Overcast
12:36 PM 69.8 °F 55.4 °F 60% 30.08 in 10.0 mi NNE 9.2 mph - N/A   Mostly Cloudy
12:53 PM 71.1 °F 55.0 °F 57% 30.07 in 10.0 mi NE 8.1 mph - N/A   Mostly Cloudy
1:53 PM 73.0 °F 51.1 °F 46% 30.05 in 10.0 mi NNE 5.8 mph - N/A   Mostly Cloudy
2:53 PM 75.0 °F 48.0 °F 38% 30.02 in 10.0 mi North 8.1 mph - N/A   Mostly Cloudy
3:53 PM 75.9 °F 46.9 °F 36% 30.02 in 10.0 mi North 8.1 mph - N/A   Scattered Clouds
4:53 PM 75.0 °F 46.0 °F 36% 30.03 in 10.0 mi North 4.6 mph - N/A   Mostly Cloudy
5:53 PM 73.0 °F 48.9 °F 42% 30.04 in 10.0 mi North 3.5 mph - N/A   Mostly Cloudy
6:53 PM 66.0 °F 54.0 °F 65% 30.06 in 10.0 mi Calm Calm - N/A   Mostly Cloudy
7:53 PM 62.1 °F 54.0 °F 75% 30.08 in 10.0 mi Calm Calm - N/A   Mostly Cloudy
8:53 PM 60.1 °F 53.1 °F 78% 30.09 in 10.0 mi Calm Calm - N/A   Mostly Cloudy
9:53 PM 60.1 °F 54.0 °F 80% 30.09 in 10.0 mi Calm Calm - N/A   Mostly Cloudy
10:53 PM 57.9 °F 53.1 °F 84% 30.09 in 10.0 mi Calm Calm - N/A   Mostly Cloudy
11:53 PM 57.9 °F 53.1 °F 84% 30.07 in 10.0 mi Calm Calm - N/A   Clear